Simultaneous Nadir Overpasses (SNOs) Predictions

Prediction of SNOs between LANDSAT-8 and NPP Satellite Orbit:

Table of predicted SNOs for the next 14.0 days since TLE Epoch: 12/13/2014
Index Date (LANDSAT-8) Time (LANDSAT-8) Lat,Lon (LANDSAT-8) SZA (LANDSAT-8 ) Date (NPP) Time (NPP) Lat,Lon (NPP) SZA (NPP ) Distance(km) Time Diff (sec)
1 12/13/2014 09:45:09 -70.80,-148.86 86.16 12/13/2014 09:44:38 -70.79,-148.80 86.17 2.61 31
2 12/13/2014 10:34:36 70.70, 18.63 93.75 12/13/2014 10:35:23 70.72, 18.62 93.77 2.34 47
3 12/16/2014 01:12:06 71.20, 160.00 94.40 12/16/2014 01:10:55 71.24, 158.89 94.45 40.00 71
4 12/16/2014 02:01:42 -70.77, -33.05 86.04 12/16/2014 02:01:30 -70.80, -33.04 86.01 3.26 12
5 12/16/2014 02:51:09 70.67, 134.45 93.87 12/16/2014 02:52:14 70.68, 134.46 93.88 1.26 65
6 12/18/2014 17:28:47 70.86, -84.68 94.16 12/18/2014 17:27:38 70.84, -84.67 94.14 2.37 69
7 12/18/2014 18:18:17 -70.76, 82.79 85.95 12/18/2014 18:18:20 -70.76, 82.79 85.95 0.26 3
8 12/18/2014 19:07:49 70.39,-110.12 93.69 12/18/2014 19:08:59 70.38,-109.30 93.67 30.70 70
9 12/21/2014 09:45:27 70.83, 31.09 94.17 12/21/2014 09:44:29 70.82, 31.15 94.16 2.24 58
10 12/21/2014 10:34:57 -70.73,-161.42 85.94 12/21/2014 10:35:11 -70.73,-161.40 85.93 1.18 14
11 12/21/2014 11:24:36 69.97, 5.11 93.32 12/21/2014 11:25:43 69.98, 7.08 93.31 74.94 67
12 12/24/2014 02:02:10 70.81, 146.90 94.14 12/24/2014 02:01:20 70.80, 146.95 94.13 2.75 50
13 12/24/2014 02:51:40 -70.72, -45.62
